Weather History for KRTN - February, 2014

Change the Weather History Date:

Thursday, February 27, 2014

  Actual Average (KTAD) Record (KTAD)
Temperature  
Mean Temperature 38 °F 38 °F  
Max Temperature 57 °F 53 °F 77 °F (1980)
Min Temperature 19 °F 23 °F -10 °F (1962)
Degree Days  
Heating Degree Days 27 27  
Month to date heating degree days 814  
Since 1 July heating degree days 4096  
Cooling Degree Days 0 0  
Month to date cooling degree days 0  
Year to date cooling degree days 0  
Moisture  
Dew Point 22 °F    
Average Humidity 56    
Maximum Humidity 93    
Minimum Humidity 22    
Precipitation  
Precipitation 0.00 in 0.02 in 0.18 in (1990)
Month to date precipitation 0.47  
Year to date precipitation 0.87  
Sea Level Pressure  
Sea Level Pressure 29.72 in    
Wind  
Wind Speed 8 mph (NNW)    
Max Wind Speed 31 mph    
Max Gust Speed 45 mph    
Visibility 10 miles    
Events Rain    
T = Trace of Precipitation, MM = Missing Value Source: NWS Daily Summary

Daily Weather History Graph

Daily Weather History Graph

Search for Another Location

Airport or City:

Trip Planner

Search our weather history database for the weather conditions in past years. The results will help you decide how hot, cold, wet, or windy it might be!

Date:

Astronomy

Feb. 27, 2014 Rise Set
Actual Time 6:31 AM MST 5:50 PM MST
Civil Twilight 6:05 AM MST 6:16 PM MST
Nautical Twilight 5:35 AM MST 6:46 PM MST
Astronomical Twilight 5:05 AM MST 7:16 PM MST
Moon 5:03 AM MST (2/27) 4:20 PM MST (2/27)
Length of Visible Light 12h 11m
Length of Day
11h 19m
Waning Crescent, 4% of the Moon is Illuminated
Feb 27
Waning Crescent
Mar 1
New
Mar 8
First Quarter
Mar 16
Full
Mar 23
Last Quarter

Hourly Weather History & Observations

Time (MST) Temp. Windchill Dew Point Humidity Pressure Visibility Wind Dir Wind Speed Gust Speed Precip Events Conditions
12:53 AM 24.1 °F 16.0 °F 14.0 °F 65% 29.99 in 10.0 mi North 6.9 mph - N/A   Clear
1:53 AM 21.9 °F 13.4 °F 12.9 °F 68% 29.96 in 10.0 mi ENE 6.9 mph - N/A   Clear
2:53 AM 23.0 °F 13.9 °F 14.0 °F 68% 29.89 in 10.0 mi ENE 8.1 mph - N/A   Clear
3:53 AM 21.0 °F 11.4 °F 12.9 °F 71% 29.89 in 10.0 mi ENE 8.1 mph - N/A   Clear
4:53 AM 19.9 °F 10.1 °F 12.9 °F 74% 29.90 in 10.0 mi NE 8.1 mph - N/A   Clear
5:53 AM 19.0 °F 12.3 °F 12.9 °F 77% 29.93 in 10.0 mi NE 4.6 mph - N/A   Clear
6:53 AM 19.9 °F 13.4 °F 12.9 °F 74% 29.93 in 10.0 mi ENE 4.6 mph - N/A   Clear
7:53 AM 26.1 °F 19.4 °F 15.1 °F 63% 29.94 in 10.0 mi ENE 5.8 mph - N/A   Clear
8:53 AM 37.0 °F 33.3 °F 17.1 °F 44% 29.88 in 10.0 mi East 4.6 mph - N/A   Clear
9:53 AM 44.1 °F 42.5 °F 16.0 °F 32% 29.82 in 10.0 mi NE 3.5 mph - N/A   Scattered Clouds
10:53 AM 48.9 °F - 16.0 °F 27% 29.74 in 10.0 mi Variable 3.5 mph - N/A   Overcast
11:53 AM 53.1 °F - 18.0 °F 25% 29.72 in 10.0 mi South 4.6 mph - N/A   Overcast
12:53 PM 55.9 °F - 18.0 °F 23% 29.66 in 10.0 mi Calm Calm - N/A   Overcast
1:53 PM 57.9 °F - 19.0 °F 22% 29.62 in 10.0 mi West 10.4 mph - N/A   Scattered Clouds
2:53 PM 57.9 °F - 19.9 °F 23% 29.60 in 10.0 mi WNW 25.3 mph 34.5 mph N/A   Scattered Clouds
3:53 PM 57.0 °F - 24.1 °F 28% 29.61 in 10.0 mi West 18.4 mph 31.1 mph N/A   Clear
4:53 PM 55.9 °F - 25.0 °F 30% 29.59 in 10.0 mi WSW 15.0 mph 18.4 mph N/A   Clear
5:53 PM 50.0 °F - 21.9 °F 33% 29.60 in 10.0 mi South 6.9 mph - N/A   Clear
6:53 PM 48.9 °F - 28.9 °F 46% 29.64 in 10.0 mi WSW 31.1 mph 44.9 mph 0.00 in Rain Light Rain
7:53 PM 44.1 °F 38.1 °F 30.9 °F 60% 29.65 in 10.0 mi SSW 11.5 mph - 0.00 in   Mostly Cloudy
8:53 PM 39.9 °F 33.4 °F 35.1 °F 83% 29.57 in 10.0 mi SSW 10.4 mph - N/A   Clear
9:15 PM 39.0 °F - 36.0 °F 89% 29.66 in 10.0 mi Calm Calm - N/A   Scattered Clouds
9:39 PM 37.9 °F 34.4 °F 36.0 °F 93% 29.64 in 10.0 mi NW 4.6 mph - N/A   Mostly Cloudy
9:46 PM 39.0 °F 33.4 °F 36.0 °F 89% 29.64 in 10.0 mi SW 8.1 mph - N/A   Mostly Cloudy
9:53 PM 37.9 °F 32.1 °F 35.1 °F 89% 29.55 in 10.0 mi WSW 8.1 mph - N/A   Scattered Clouds
10:53 PM 37.9 °F 34.4 °F 30.9 °F 76% 29.48 in 10.0 mi Variable 4.6 mph - N/A   Clear
11:53 PM 42.1 °F 32.6 °F 25.0 °F 51% 29.44 in 10.0 mi WNW 23.0 mph 31.1 mph N/A   Clear